sat.trackr.live / text

‹ back to catalog

STARLINK-32400

NORAD 61669 · 2024-193J

PAYLOAD ACTIVE UNKNOWN

§ Identity

Operator
Country
US
Launch date
2024-10-26
Launch site
AFETR
Launch vehicle
Mass (kg)
RCS (m²)

Purposes: comms

External: N2YO · Heavens-Above · Gunter

§ Orbital elements

Epoch: 2026-09-20T23:27:45.958464Z

Period
93.85 min
Inclination
53.1592°
Eccentricity
0.0001371
Mean motion
15.34406420 rev/d
Perigee alt
461.7 km
Apogee alt
463.6 km
Semi-major
6,840.8 km
B*
9.8181e-5
RAAN
259.1280°
Arg perigee
49.2531°
Mean anomaly
310.8590°
Rev number
10,649

§ Raw data

STARLINK-324001 61669U 24193J   26263.97761526  .00002943  00000+0  98181-4 0  99972 61669  53.1592 259.1280 0001371  49.2531 310.8590 15.34406420106493

JSON: /api/v1/satellites/61669 · /tle

For live sub-satellite position, see the globe view (requires WebGL).

§ Visibility from observer

Set your observer location to see the next 7 days of passes ≥ 10°. The values pass through the URL so the page stays shareable.

No JS? Fill the form by hand. The geolocation button needs JavaScript.